Fort Worth Spinks, TX

7:14 PM CDT on June 26, 2017 (GMT -0500)
Fort Worth Spinks

Weather History for KFWS - April, 2014

Change the Weather History Date:

Sunday, April 27, 2014

  Actual Average (KNFW) Record (KNFW)
Temperature  
Mean Temperature 81 °F -  
Max Temperature 93 °F 76 °F 96 °F (2014)
Min Temperature 69 °F 57 °F 50 °F (2017)
Cooling Degree Days 16    
Growing Degree Days 31 (Base 50)    
Moisture  
Dew Point 53 °F    
Average Humidity 52    
Maximum Humidity 83    
Minimum Humidity 12    
Precipitation  
Precipitation 0.00 in - - ()
Sea Level Pressure  
Sea Level Pressure 29.53 in    
Wind  
Wind Speed 14 mph (SSW)    
Max Wind Speed 22 mph    
Max Gust Speed 39 mph    
Visibility 8 miles    
Events      
Averages and records for this station are not official NWS values.
T = Trace of Precipitation, MM = Missing Value Source: NWS Daily Summary

Daily Weather History Graph

Daily Weather History Graph

Search for Another Location

Airport or City:

Trip Planner

Search our weather history database for the weather conditions in past years. The results will help you decide how hot, cold, wet, or windy it might be!

Date:

Astronomy

Apr. 27, 2014 Rise Set
Actual Time 6:46 AM CDT 8:07 PM CDT
Civil Twilight 6:20 AM CDT 8:33 PM CDT
Nautical Twilight 5:49 AM CDT 9:04 PM CDT
Astronomical Twilight 5:17 AM CDT 9:37 PM CDT
Moon 5:41 AM CDT 6:47 PM CDT
Length of Visible Light 14h 13m
Length of Day
13h 21m
Waning Crescent, 3% of the Moon is Illuminated
Apr 27
Waning Crescent
Apr 29
New
May 6
First Quarter
May 14
Full
May 21
Last Quarter

Hourly Weather History & Observations

Time (CDT) Temp. Heat Index Dew Point Humidity Pressure Visibility Wind Dir Wind Speed Gust Speed Precip Events Conditions
12:15 AM 73.9 °F - 67.1 °F 79% 29.66 in 7.0 mi SSE 11.5 mph 18.4 mph N/A   Mostly Cloudy
12:35 AM 73.6 °F - 67.3 °F 81% 29.64 in 5.0 mi SSE 13.8 mph 19.6 mph N/A   Haze
1:15 AM 73.0 °F - 66.4 °F 80% 29.63 in 7.0 mi SSE 16.1 mph 21.9 mph N/A   Mostly Cloudy
1:35 AM 72.9 °F - 65.7 °F 78% 29.62 in 7.0 mi SSE 15.0 mph 24.2 mph N/A   Mostly Cloudy
1:55 AM 72.9 °F - 65.5 °F 78% 29.62 in 7.0 mi SSE 15.0 mph 27.6 mph N/A   Mostly Cloudy
2:15 AM 73.0 °F - 65.3 °F 77% 29.61 in 7.0 mi SSE 18.4 mph 24.2 mph N/A   Overcast
2:35 AM 73.0 °F - 65.5 °F 77% 29.60 in 7.0 mi SSE 17.3 mph 27.6 mph N/A   Overcast
2:55 AM 73.0 °F - 65.8 °F 78% 29.59 in 7.0 mi South 21.9 mph 28.8 mph N/A   Overcast
3:15 AM 72.9 °F - 66.6 °F 81% 29.59 in 7.0 mi South 17.3 mph 27.6 mph N/A   Overcast
3:35 AM 72.0 °F - 66.4 °F 83% 29.58 in 5.0 mi South 21.9 mph 28.8 mph N/A   Haze
3:55 AM 71.8 °F - 66.4 °F 83% 29.58 in 5.0 mi SSE 20.7 mph 27.6 mph N/A   Haze
4:15 AM 72.1 °F - 66.4 °F 82% 29.57 in 5.0 mi SSE 17.3 mph 28.8 mph N/A   Haze
4:35 AM 73.0 °F - 66.9 °F 81% 29.56 in 5.0 mi SSE 20.7 mph 29.9 mph N/A   Haze
4:55 AM 73.0 °F - 66.7 °F 81% 29.56 in 7.0 mi South 18.4 mph 25.3 mph N/A   Overcast
5:15 AM 73.0 °F - 66.4 °F 80% 29.56 in 7.0 mi SSE 15.0 mph 21.9 mph N/A   Overcast
5:35 AM 73.4 °F - 66.2 °F 78% 29.55 in 7.0 mi South 15.0 mph 24.2 mph N/A   Overcast
5:55 AM 73.4 °F - 66.2 °F 78% 29.54 in 7.0 mi SSE 20.7 mph 25.3 mph N/A   Overcast
6:15 AM 73.2 °F - 66.2 °F 79% 29.53 in 7.0 mi SSE 19.6 mph 26.5 mph N/A   Overcast
6:35 AM 73.0 °F - 66.2 °F 79% 29.53 in 5.0 mi South 17.3 mph 26.5 mph N/A   Haze
7:52 AM 75.2 °F - 66.2 °F 73% 29.54 in 5.0 mi South 18.4 mph 39.1 mph N/A   Haze
8:55 AM 75.2 °F - 68.0 °F 78% 29.56 in 4.0 mi SSE 10.4 mph - N/A   Haze
9:51 AM 78.8 °F - 68.0 °F 69% 29.56 in 5.0 mi South 15.0 mph 24.2 mph N/A   Haze
11:54 AM 84.2 °F 85.6 °F 64.4 °F 51% 29.56 in 5.0 mi WSW 13.8 mph 23.0 mph N/A   Haze
12:50 PM 87.8 °F 87.6 °F 60.8 °F 40% 29.53 in 7.0 mi SW 12.7 mph - N/A   Mostly Cloudy
1:50 PM 87.8 °F - 48.2 °F 25% 29.52 in 7.0 mi West 12.7 mph - N/A   Scattered Clouds
2:50 PM 87.8 °F - 41.0 °F 19% 29.51 in 7.0 mi WSW 18.4 mph - N/A   Scattered Clouds
3:50 PM 89.6 °F - 37.4 °F 16% 29.47 in 7.0 mi WSW 12.7 mph 20.7 mph N/A   Clear
4:50 PM 91.4 °F - 39.2 °F 16% 29.43 in 10.0 mi SSW 9.2 mph 17.3 mph N/A   Clear
5:50 PM 93.2 °F - 37.4 °F 14% 29.42 in 10.0 mi SSW 20.7 mph 27.6 mph N/A   Clear
6:50 PM 91.4 °F - 32.0 °F 12% 29.42 in 10.0 mi WSW 15.0 mph 25.3 mph N/A   Clear
7:15 PM 88.9 °F - 32.0 °F 13% 29.43 in 10.0 mi West 12.7 mph 19.6 mph N/A   Clear
7:35 PM 85.8 °F - 33.3 °F 15% 29.44 in 10.0 mi West 8.1 mph - N/A   Clear
7:55 PM 84.0 °F - 32.4 °F 16% 29.45 in 10.0 mi West 8.1 mph - N/A   Clear
8:15 PM 81.5 °F - 33.4 °F 18% 29.46 in 10.0 mi SW 3.5 mph - N/A   Clear
8:55 PM 74.8 °F - 35.8 °F 24% 29.48 in 7.0 mi SSW 3.5 mph - N/A   Clear
9:15 PM 78.1 °F - 33.8 °F 20% 29.49 in 10.0 mi SW 4.6 mph - N/A   Clear
9:35 PM 75.6 °F - 36.1 °F 24% 29.50 in 10.0 mi WSW 4.6 mph - N/A   Clear
9:55 PM 75.0 °F - 37.6 °F 26% 29.51 in 10.0 mi Calm Calm - N/A   Clear
10:15 PM 70.5 °F - 42.8 °F 37% 29.51 in 10.0 mi South 4.6 mph - N/A   Clear
10:35 PM 69.8 °F - 42.1 °F 37% 29.53 in 10.0 mi South 5.8 mph - N/A   Clear
10:55 PM 72.5 °F - 38.7 °F 29% 29.53 in 10.0 mi South 5.8 mph - N/A   Scattered Clouds
11:15 PM 69.6 °F - 39.7 °F 34% 29.52 in 10.0 mi South 5.8 mph - N/A   Mostly Cloudy
11:35 PM 72.5 °F - 35.6 °F 26% 29.52 in 10.0 mi SW 6.9 mph - N/A   Mostly Cloudy
11:55 PM 73.9 °F - 34.7 °F 24% 29.53 in 10.0 mi SW 6.9 mph - N/A   Scattered Clouds